Time,TemperatureF,DewpointF,PressureIn,WindDirection,WindDirectionDegrees,WindSpeedMPH,WindSpeedGustMPH,Humidity,HourlyPrecipIn,Conditions,Clouds,dailyrainin,SoftwareType,DateUTC
2013-07-10 00:01:00,70.8,67.5,29.63,SSW,202,2.3,4.7,89,0.00,,,0.00,Rainwise IP-100,2013-07-10 04:01:00,
2013-07-10 00:06:00,70.8,67.5,29.63,South,180,0.0,7.0,89,0.00,,,0.00,Rainwise IP-100,2013-07-10 04:06:00,
2013-07-10 00:11:00,70.7,67.0,29.63,SW,225,3.0,5.6,89,0.00,,,0.00,Rainwise IP-100,2013-07-10 04:11:00,
2013-07-10 00:16:00,70.7,67.5,29.62,West,270,2.8,4.7,90,0.00,,,0.00,Rainwise IP-100,2013-07-10 04:16:00,
2013-07-10 00:21:00,70.7,67.5,29.63,SSW,202,3.0,7.2,90,0.00,,,0.00,Rainwise IP-100,2013-07-10 04:21:00,
2013-07-10 00:26:00,70.7,67.5,29.63,WSW,247,1.6,4.9,90,0.00,,,0.00,Rainwise IP-100,2013-07-10 04:26:00,
2013-07-10 00:31:00,70.7,67.5,29.62,ESE,112,2.8,5.4,90,0.00,,,0.00,Rainwise IP-100,2013-07-10 04:31:00,
2013-07-10 00:36:00,70.7,67.5,29.63,SW,225,2.3,4.9,90,0.00,,,0.00,Rainwise IP-100,2013-07-10 04:36:00,
2013-07-10 00:41:00,70.7,67.5,29.62,SSW,202,3.7,5.6,90,0.00,,,0.00,Rainwise IP-100,2013-07-10 04:41:00,
2013-07-10 00:46:00,70.7,67.5,29.63,SSE,157,1.2,4.7,90,0.00,,,0.00,Rainwise IP-100,2013-07-10 04:46:00,
2013-07-10 00:51:00,70.7,67.5,29.62,South,180,2.6,4.7,90,0.00,,,0.00,Rainwise IP-100,2013-07-10 04:51:00,
2013-07-10 00:56:00,70.6,67.5,29.63,SSW,202,2.3,4.2,90,0.00,,,0.00,Rainwise IP-100,2013-07-10 04:56:00,
2013-07-10 01:02:00,70.6,67.5,29.62,WSW,247,3.3,4.4,90,0.00,,,0.00,Rainwise IP-100,2013-07-10 05:02:00,
2013-07-10 01:07:00,70.5,67.5,29.62,South,180,4.9,6.3,90,0.00,,,0.00,Rainwise IP-100,2013-07-10 05:07:00,
2013-07-10 01:12:00,70.5,67.5,29.62,SSE,157,5.4,5.8,90,0.00,,,0.00,Rainwise IP-100,2013-07-10 05:12:00,
2013-07-10 01:17:00,70.4,67.5,29.61,ESE,112,3.0,6.3,91,0.00,,,0.00,Rainwise IP-100,2013-07-10 05:17:00,
2013-07-10 01:22:00,70.4,67.5,29.61,SSW,202,2.6,4.9,91,0.00,,,0.00,Rainwise IP-100,2013-07-10 05:22:00,
2013-07-10 01:27:00,70.4,67.5,29.61,SSW,202,0.0,4.7,91,0.00,,,0.00,Rainwise IP-100,2013-07-10 05:27:00,
2013-07-10 01:32:00,70.3,67.5,29.61,SW,225,2.1,4.9,91,0.00,,,0.00,Rainwise IP-100,2013-07-10 05:32:00,
2013-07-10 01:37:00,70.3,67.5,29.61,SSW,202,0.0,5.8,91,0.00,,,0.00,Rainwise IP-100,2013-07-10 05:37:00,
2013-07-10 01:42:00,70.3,67.5,29.61,South,180,2.1,3.3,91,0.00,,,0.00,Rainwise IP-100,2013-07-10 05:42:00,
2013-07-10 01:47:00,70.3,67.5,29.61,WSW,247,0.0,4.7,91,0.00,,,0.00,Rainwise IP-100,2013-07-10 05:47:00,
2013-07-10 01:52:00,70.3,67.5,29.61,SSW,202,1.6,1.9,91,0.00,,,0.00,Rainwise IP-100,2013-07-10 05:52:00,
2013-07-10 01:57:00,70.3,67.5,29.61,ESE,112,2.6,3.7,91,0.00,,,0.00,Rainwise IP-100,2013-07-10 05:57:00,
2013-07-10 02:02:00,70.3,67.5,29.60,WSW,247,3.3,3.5,91,0.00,,,0.00,Rainwise IP-100,2013-07-10 06:02:00,
2013-07-10 02:08:00,70.3,67.5,29.61,SSE,157,4.4,5.6,91,0.00,,,0.00,Rainwise IP-100,2013-07-10 06:08:00,
2013-07-10 02:13:00,70.3,67.5,29.60,SW,225,2.8,4.4,91,0.00,,,0.00,Rainwise IP-100,2013-07-10 06:13:00,
2013-07-10 02:18:00,70.2,67.0,29.60,SSW,202,2.6,3.3,91,0.00,,,0.00,Rainwise IP-100,2013-07-10 06:18:00,
2013-07-10 02:23:00,70.2,67.0,29.60,SSE,157,1.9,5.8,91,0.00,,,0.00,Rainwise IP-100,2013-07-10 06:23:00,
2013-07-10 02:28:00,70.1,67.0,29.60,SSW,202,0.0,4.2,91,0.00,,,0.00,Rainwise IP-100,2013-07-10 06:28:00,
2013-07-10 02:33:00,70.1,67.0,29.60,SSW,202,0.0,4.2,91,0.00,,,0.00,Rainwise IP-100,2013-07-10 06:33:00,
2013-07-10 02:38:00,70.1,67.0,29.60,SSE,157,1.2,5.6,91,0.00,,,0.00,Rainwise IP-100,2013-07-10 06:38:00,
2013-07-10 02:43:00,70.1,67.0,29.60,SSW,202,1.6,4.0,91,0.00,,,0.00,Rainwise IP-100,2013-07-10 06:43:00,
2013-07-10 02:48:00,70.1,67.5,29.59,SSW,202,0.0,5.1,92,0.00,,,0.00,Rainwise IP-100,2013-07-10 06:48:00,
2013-07-10 02:54:00,70.1,67.5,29.59,South,180,3.5,4.2,92,0.00,,,0.00,Rainwise IP-100,2013-07-10 06:54:00,
2013-07-10 02:59:00,70.1,67.5,29.59,South,180,2.8,5.6,92,0.00,,,0.00,Rainwise IP-100,2013-07-10 06:59:00,
2013-07-10 03:04:00,70.1,67.5,29.59,SE,135,2.6,5.6,92,0.00,,,0.00,Rainwise IP-100,2013-07-10 07:04:00,
2013-07-10 03:09:00,70.0,67.5,29.59,WSW,247,4.0,5.8,92,0.00,,,0.00,Rainwise IP-100,2013-07-10 07:09:00,
2013-07-10 03:14:00,70.0,67.5,29.58,SSE,157,2.6,4.4,92,0.00,,,0.00,Rainwise IP-100,2013-07-10 07:14:00,
2013-07-10 03:19:00,69.9,67.5,29.58,ENE,67,1.4,3.0,92,0.00,,,0.00,Rainwise IP-100,2013-07-10 07:19:00,
2013-07-10 03:24:00,69.9,67.5,29.58,NNE,22,2.3,5.4,92,0.00,,,0.00,Rainwise IP-100,2013-07-10 07:24:00,
2013-07-10 03:29:00,69.8,67.0,29.58,SSW,202,1.4,4.0,92,0.00,,,0.00,Rainwise IP-100,2013-07-10 07:29:00,
2013-07-10 03:34:00,69.8,67.0,29.57,WSW,247,0.0,3.7,92,0.00,,,0.00,Rainwise IP-100,2013-07-10 07:34:00,
2013-07-10 03:39:00,69.8,67.0,29.58,ESE,112,2.1,2.6,92,0.00,,,0.00,Rainwise IP-100,2013-07-10 07:39:00,
2013-07-10 03:44:00,69.8,67.0,29.57,SSE,157,0.0,4.9,92,0.00,,,0.00,Rainwise IP-100,2013-07-10 07:44:00,
2013-07-10 03:49:00,69.8,67.0,29.58,SSW,202,0.0,4.4,92,0.00,,,0.00,Rainwise IP-100,2013-07-10 07:49:00,
2013-07-10 03:54:00,69.7,67.0,29.58,West,270,0.0,3.7,92,0.00,,,0.00,Rainwise IP-100,2013-07-10 07:54:00,
2013-07-10 03:59:00,69.7,67.0,29.57,SSW,202,3.3,4.9,92,0.00,,,0.00,Rainwise IP-100,2013-07-10 07:59:00,
2013-07-10 04:05:00,69.7,67.0,29.58,South,180,2.8,4.2,92,0.00,,,0.00,Rainwise IP-100,2013-07-10 08:05:00,
2013-07-10 04:10:00,69.6,67.0,29.57,SSE,157,3.0,3.7,92,0.00,,,0.00,Rainwise IP-100,2013-07-10 08:10:00,
2013-07-10 04:15:00,69.6,67.0,29.57,SSW,202,4.7,5.8,92,0.00,,,0.00,Rainwise IP-100,2013-07-10 08:15:00,
2013-07-10 04:20:00,69.6,67.0,29.57,SW,225,2.6,6.1,92,0.00,,,0.00,Rainwise IP-100,2013-07-10 08:20:00,
2013-07-10 04:25:00,69.6,67.0,29.57,WSW,247,2.3,5.1,92,0.00,,,0.00,Rainwise IP-100,2013-07-10 08:25:00,
2013-07-10 04:30:00,69.6,67.0,29.57,SSE,157,0.0,3.0,92,0.00,,,0.00,Rainwise IP-100,2013-07-10 08:30:00,
2013-07-10 04:35:00,69.6,67.0,29.57,SSW,202,1.2,3.0,92,0.00,,,0.00,Rainwise IP-100,2013-07-10 08:35:00,
2013-07-10 04:40:00,69.6,67.0,29.57,SSW,202,3.3,4.0,92,0.00,,,0.00,Rainwise IP-100,2013-07-10 08:40:00,
2013-07-10 04:45:00,69.6,67.0,29.57,SSE,157,2.3,4.2,92,0.00,,,0.00,Rainwise IP-100,2013-07-10 08:45:00,
2013-07-10 04:50:00,69.6,67.0,29.57,SSW,202,1.4,4.4,92,0.00,,,0.00,Rainwise IP-100,2013-07-10 08:50:00,
2013-07-10 04:55:00,69.6,67.0,29.57,SSW,202,2.3,3.0,92,0.00,,,0.00,Rainwise IP-100,2013-07-10 08:55:00,
2013-07-10 05:00:00,69.6,67.0,29.57,SSE,157,2.3,4.9,92,0.00,,,0.00,Rainwise IP-100,2013-07-10 09:00:00,
2013-07-10 05:05:00,69.6,67.0,29.57,SSW,202,1.6,4.7,92,0.00,,,0.00,Rainwise IP-100,2013-07-10 09:05:00,
2013-07-10 05:10:00,69.5,67.0,29.57,SSE,157,3.0,4.4,92,0.00,,,0.00,Rainwise IP-100,2013-07-10 09:10:00,
2013-07-10 05:15:00,69.5,67.0,29.57,WSW,247,3.0,3.3,92,0.00,,,0.00,Rainwise IP-100,2013-07-10 09:15:00,
2013-07-10 05:21:00,69.4,66.7,29.57,WSW,247,2.3,3.5,92,0.00,,,0.00,Rainwise IP-100,2013-07-10 09:21:00,
2013-07-10 05:26:00,69.5,67.0,29.57,South,180,1.4,3.5,92,0.00,,,0.00,Rainwise IP-100,2013-07-10 09:26:00,
2013-07-10 05:31:00,69.5,67.0,29.57,SSW,202,2.1,3.7,92,0.00,,,0.00,Rainwise IP-100,2013-07-10 09:31:00,
2013-07-10 05:34:00,69.5,67.0,29.57,SSW,202,0.0,3.5,92,0.00,,,0.00,Rainwise IP-100,2013-07-10 09:34:00,
2013-07-10 05:39:00,69.5,67.0,29.57,WNW,292,1.2,2.6,92,0.00,,,0.00,Rainwise IP-100,2013-07-10 09:39:00,
2013-07-10 05:44:00,69.5,67.0,29.57,SSW,202,1.4,2.1,92,0.00,,,0.00,Rainwise IP-100,2013-07-10 09:44:00,
2013-07-10 05:49:00,69.5,67.0,29.57,WSW,247,1.9,5.6,92,0.00,,,0.00,Rainwise IP-100,2013-07-10 09:49:00,
2013-07-10 05:54:00,69.5,67.0,29.57,SSW,202,1.9,3.5,92,0.00,,,0.00,Rainwise IP-100,2013-07-10 09:54:00,
2013-07-10 05:59:00,69.4,66.7,29.57,SSE,157,2.6,4.4,92,0.00,,,0.00,Rainwise IP-100,2013-07-10 09:59:00,
2013-07-10 06:04:00,69.4,66.7,29.57,South,180,2.6,4.9,92,0.00,,,0.00,Rainwise IP-100,2013-07-10 10:04:00,
2013-07-10 06:09:00,69.4,66.7,29.56,SE,135,0.0,3.5,92,0.00,,,0.00,Rainwise IP-100,2013-07-10 10:09:00,
2013-07-10 06:14:00,69.4,66.7,29.57,SSE,157,0.0,3.0,92,0.00,,,0.00,Rainwise IP-100,2013-07-10 10:14:00,
2013-07-10 06:19:00,69.4,66.7,29.56,SSE,157,0.0,3.3,92,0.00,,,0.00,Rainwise IP-100,2013-07-10 10:19:00,
2013-07-10 06:25:00,69.5,67.0,29.56,WSW,247,2.6,4.7,92,0.00,,,0.00,Rainwise IP-100,2013-07-10 10:25:00,
2013-07-10 06:30:00,69.5,67.0,29.56,SE,135,4.0,4.0,92,0.00,,,0.00,Rainwise IP-100,2013-07-10 10:30:00,
2013-07-10 06:35:00,69.4,66.7,29.57,SSW,202,0.0,6.3,92,0.00,,,0.00,Rainwise IP-100,2013-07-10 10:35:00,
2013-07-10 06:40:00,69.5,67.0,29.56,SSW,202,4.2,4.2,92,0.00,,,0.00,Rainwise IP-100,2013-07-10 10:40:00,
2013-07-10 06:45:00,69.5,67.0,29.55,WNW,292,1.2,4.4,92,0.00,,,0.00,Rainwise IP-100,2013-07-10 10:45:00,
2013-07-10 06:50:00,69.5,67.0,29.55,ESE,112,3.0,3.0,92,0.00,,,0.00,Rainwise IP-100,2013-07-10 10:50:00,
2013-07-10 06:55:00,69.5,67.0,29.55,SSW,202,3.3,4.9,92,0.00,,,0.00,Rainwise IP-100,2013-07-10 10:55:00,
2013-07-10 07:00:00,69.4,66.7,29.55,SSE,157,3.0,9.3,92,0.00,,,0.00,Rainwise IP-100,2013-07-10 11:00:00,
2013-07-10 07:05:00,69.4,66.7,29.56,SSE,157,1.4,6.3,92,0.00,,,0.00,Rainwise IP-100,2013-07-10 11:05:00,
2013-07-10 07:10:00,69.5,67.0,29.55,South,180,1.9,4.4,92,0.00,,,0.00,Rainwise IP-100,2013-07-10 11:10:00,
2013-07-10 07:15:00,69.5,67.0,29.55,SSW,202,4.2,7.9,92,0.00,,,0.00,Rainwise IP-100,2013-07-10 11:15:00,
2013-07-10 07:20:00,69.5,67.0,29.55,SW,225,1.4,8.4,92,0.00,,,0.00,Rainwise IP-100,2013-07-10 11:20:00,
2013-07-10 07:25:00,69.5,67.0,29.55,SSW,202,1.6,7.7,92,0.00,,,0.00,Rainwise IP-100,2013-07-10 11:25:00,
2013-07-10 07:30:00,69.5,67.0,29.55,SSW,202,2.1,5.8,92,0.00,,,0.00,Rainwise IP-100,2013-07-10 11:30:00,
2013-07-10 07:35:00,69.6,67.0,29.54,SW,225,4.9,6.3,92,0.00,,,0.00,Rainwise IP-100,2013-07-10 11:35:00,
2013-07-10 07:41:00,69.7,67.0,29.54,SW,225,4.0,6.3,92,0.00,,,0.00,Rainwise IP-100,2013-07-10 11:41:00,
2013-07-10 07:46:00,69.8,67.0,29.54,East,90,1.6,6.1,92,0.00,,,0.00,Rainwise IP-100,2013-07-10 11:46:00,
2013-07-10 07:51:00,69.8,67.0,29.54,SW,225,2.3,6.3,92,0.00,,,0.00,Rainwise IP-100,2013-07-10 11:51:00,
2013-07-10 07:56:00,69.8,67.0,29.54,SSW,202,4.2,6.3,92,0.00,,,0.00,Rainwise IP-100,2013-07-10 11:56:00,
2013-07-10 08:01:00,69.8,67.0,29.54,South,180,4.7,7.9,92,0.00,,,0.00,Rainwise IP-100,2013-07-10 12:01:00,
2013-07-10 08:06:00,69.8,67.0,29.54,SW,225,3.0,5.8,92,0.00,,,0.00,Rainwise IP-100,2013-07-10 12:06:00,
2013-07-10 08:11:00,69.8,67.0,29.54,SW,225,5.1,9.3,92,0.00,,,0.00,Rainwise IP-100,2013-07-10 12:11:00,
2013-07-10 08:16:00,69.8,67.0,29.54,SSW,202,4.4,9.8,92,0.00,,,0.00,Rainwise IP-100,2013-07-10 12:16:00,
2013-07-10 08:21:00,69.8,67.0,29.54,WSW,247,2.3,7.2,92,0.00,,,0.00,Rainwise IP-100,2013-07-10 12:21:00,
2013-07-10 08:26:00,69.7,67.0,29.53,SSW,202,5.1,9.6,92,0.00,,,0.00,Rainwise IP-100,2013-07-10 12:26:00,
2013-07-10 08:31:00,69.6,67.0,29.54,South,180,1.2,8.2,92,0.00,,,0.00,Rainwise IP-100,2013-07-10 12:31:00,
2013-07-10 08:36:00,69.6,67.0,29.53,SSW,202,6.5,6.8,92,0.00,,,0.00,Rainwise IP-100,2013-07-10 12:36:00,
2013-07-10 08:41:00,69.7,67.0,29.53,ESE,112,3.0,7.9,92,0.00,,,0.00,Rainwise IP-100,2013-07-10 12:41:00,
2013-07-10 08:46:00,69.7,67.0,29.53,South,180,3.7,4.4,92,0.00,,,0.00,Rainwise IP-100,2013-07-10 12:46:00,
2013-07-10 08:51:00,69.7,67.0,29.52,WSW,247,1.4,4.9,92,0.00,,,0.00,Rainwise IP-100,2013-07-10 12:51:00,
2013-07-10 08:57:00,69.8,67.0,29.53,ESE,112,2.6,3.0,92,0.00,,,0.00,Rainwise IP-100,2013-07-10 12:57:00,
2013-07-10 09:02:00,69.8,67.0,29.52,ESE,112,0.0,5.1,92,0.00,,,0.00,Rainwise IP-100,2013-07-10 13:02:00,
2013-07-10 09:07:00,69.8,67.0,29.52,SSE,157,0.0,4.4,92,0.00,,,0.00,Rainwise IP-100,2013-07-10 13:07:00,
2013-07-10 09:12:00,69.8,67.0,29.52,SSW,202,3.3,4.4,92,0.00,,,0.00,Rainwise IP-100,2013-07-10 13:12:00,
2013-07-10 09:17:00,69.8,67.0,29.52,SW,225,5.1,5.6,92,0.00,,,0.00,Rainwise IP-100,2013-07-10 13:17:00,
2013-07-10 09:22:00,69.7,67.0,29.52,WSW,247,1.9,8.2,92,0.00,,,0.00,Rainwise IP-100,2013-07-10 13:22:00,
2013-07-10 09:27:00,69.4,66.7,29.52,WSW,247,0.0,4.7,92,0.12,,,0.02,Rainwise IP-100,2013-07-10 13:27:00,
2013-07-10 09:32:00,69.1,66.7,29.53,SSW,202,3.3,4.4,93,0.24,,,0.04,Rainwise IP-100,2013-07-10 13:32:00,
2013-07-10 09:37:00,68.7,66.7,29.53,SW,225,0.0,6.1,94,0.18,,,0.05,Rainwise IP-100,2013-07-10 13:37:00,
2013-07-10 09:42:00,68.4,67.0,29.53,SW,225,1.2,4.0,95,0.06,,,0.05,Rainwise IP-100,2013-07-10 13:42:00,
2013-07-10 09:47:00,68.4,67.0,29.53,WSW,247,1.2,3.3,96,0.00,,,0.05,Rainwise IP-100,2013-07-10 13:47:00,
2013-07-10 09:52:00,68.3,67.0,29.53,SSW,202,2.3,2.3,96,0.00,,,0.05,Rainwise IP-100,2013-07-10 13:52:00,
2013-07-10 09:57:00,68.3,67.5,29.53,WSW,247,1.2,2.6,97,0.00,,,0.05,Rainwise IP-100,2013-07-10 13:57:00,
2013-07-10 10:02:00,68.3,67.5,29.52,WSW,247,0.0,2.1,97,0.00,,,0.05,Rainwise IP-100,2013-07-10 14:02:00,
2013-07-10 10:07:00,68.4,68.0,29.52,WSW,247,0.0,1.9,98,0.00,,,0.05,Rainwise IP-100,2013-07-10 14:07:00,
2013-07-10 10:13:00,68.6,68.0,29.52,WSW,247,0.0,1.2,98,0.00,,,0.05,Rainwise IP-100,2013-07-10 14:13:00,
2013-07-10 10:18:00,68.8,68.5,29.52,WSW,247,0.0,2.3,98,0.00,,,0.05,Rainwise IP-100,2013-07-10 14:18:00,
2013-07-10 10:23:00,68.8,68.5,29.51,WSW,247,0.0,0.0,98,0.00,,,0.05,Rainwise IP-100,2013-07-10 14:23:00,
2013-07-10 10:28:00,68.9,68.5,29.51,WSW,247,0.0,0.0,98,0.00,,,0.05,Rainwise IP-100,2013-07-10 14:28:00,
2013-07-10 10:33:00,69.1,68.5,29.51,WSW,247,0.0,1.2,98,0.00,,,0.05,Rainwise IP-100,2013-07-10 14:33:00,
2013-07-10 10:38:00,69.3,69.0,29.51,WSW,247,0.0,1.2,98,0.00,,,0.05,Rainwise IP-100,2013-07-10 14:38:00,
2013-07-10 10:43:00,69.6,69.3,29.51,SSE,157,0.0,1.2,98,0.00,,,0.05,Rainwise IP-100,2013-07-10 14:43:00,
2013-07-10 10:48:00,69.8,69.3,29.51,SSE,157,0.0,0.0,98,0.00,,,0.05,Rainwise IP-100,2013-07-10 14:48:00,
2013-07-10 10:53:00,69.9,69.7,29.52,SSE,157,0.0,0.0,98,0.00,,,0.05,Rainwise IP-100,2013-07-10 14:53:00,
2013-07-10 10:58:00,70.0,69.7,29.51,SSW,202,0.0,1.4,98,0.00,,,0.05,Rainwise IP-100,2013-07-10 14:58:00,
2013-07-10 11:03:00,70.3,70.0,29.51,SSW,202,0.0,1.2,99,0.00,,,0.05,Rainwise IP-100,2013-07-10 15:03:00,
2013-07-10 11:08:00,70.5,70.0,29.51,SSW,202,0.0,0.0,99,0.00,,,0.05,Rainwise IP-100,2013-07-10 15:08:00,
2013-07-10 11:13:00,70.7,70.0,29.50,SSW,202,0.0,0.0,99,0.00,,,0.05,Rainwise IP-100,2013-07-10 15:13:00,
2013-07-10 11:18:00,70.9,70.5,29.50,SSW,202,0.0,0.0,99,0.00,,,0.05,Rainwise IP-100,2013-07-10 15:18:00,
2013-07-10 11:23:00,71.2,71.3,29.50,WSW,247,0.0,0.0,100,0.00,,,0.05,Rainwise IP-100,2013-07-10 15:23:00,
2013-07-10 11:29:00,71.6,71.7,29.50,WSW,247,0.0,0.0,100,0.00,,,0.05,Rainwise IP-100,2013-07-10 15:29:00,
2013-07-10 11:34:00,71.1,70.5,29.49,NNE,22,1.9,1.9,99,0.00,,,0.05,Rainwise IP-100,2013-07-10 15:34:00,
2013-07-10 11:39:00,70.9,70.5,29.50,NNE,22,0.0,2.1,99,0.00,,,0.05,Rainwise IP-100,2013-07-10 15:39:00,
2013-07-10 11:44:00,71.7,71.3,29.49,NNE,22,0.0,1.2,99,0.00,,,0.05,Rainwise IP-100,2013-07-10 15:44:00,
2013-07-10 11:49:00,72.2,72.3,29.49,North,360,0.0,1.4,100,0.00,,,0.05,Rainwise IP-100,2013-07-10 15:49:00,
2013-07-10 11:54:00,72.4,72.3,29.49,NW,315,0.0,0.0,100,0.00,,,0.05,Rainwise IP-100,2013-07-10 15:54:00,
2013-07-10 11:59:00,72.8,72.7,29.49,SE,135,0.0,0.0,100,0.00,,,0.05,Rainwise IP-100,2013-07-10 15:59:00,
2013-07-10 12:04:00,73.1,73.0,29.49,ESE,112,0.0,0.0,100,0.00,,,0.05,Rainwise IP-100,2013-07-10 16:04:00,
2013-07-10 12:09:00,72.7,72.7,29.48,ENE,67,1.4,2.1,100,0.00,,,0.05,Rainwise IP-100,2013-07-10 16:09:00,
2013-07-10 12:14:00,72.4,72.3,29.48,ENE,67,1.4,2.1,100,0.00,,,0.05,Rainwise IP-100,2013-07-10 16:14:00,
2013-07-10 12:19:00,72.8,72.7,29.47,ENE,67,0.0,2.1,100,0.00,,,0.05,Rainwise IP-100,2013-07-10 16:19:00,
2013-07-10 12:24:00,73.7,73.7,29.47,NNE,22,0.0,2.8,100,0.00,,,0.05,Rainwise IP-100,2013-07-10 16:24:00,
2013-07-10 12:29:00,75.0,75.0,29.46,SSW,202,2.1,2.8,100,0.00,,,0.05,Rainwise IP-100,2013-07-10 16:29:00,
2013-07-10 12:34:00,75.2,75.0,29.46,ESE,112,1.2,4.0,100,0.00,,,0.05,Rainwise IP-100,2013-07-10 16:34:00,
2013-07-10 12:39:00,75.4,75.0,29.46,SSE,157,1.2,3.3,99,0.00,,,0.05,Rainwise IP-100,2013-07-10 16:39:00,
2013-07-10 12:45:00,76.1,75.5,29.46,SSW,202,0.0,4.0,99,0.00,,,0.05,Rainwise IP-100,2013-07-10 16:45:00,
2013-07-10 12:50:00,76.7,76.8,29.46,SSW,202,0.0,2.8,100,0.00,,,0.05,Rainwise IP-100,2013-07-10 16:50:00,
2013-07-10 12:55:00,76.6,76.5,29.45,SSW,202,1.9,2.3,100,0.00,,,0.05,Rainwise IP-100,2013-07-10 16:55:00,
2013-07-10 13:00:00,76.1,76.0,29.45,SW,225,3.5,4.7,100,0.00,,,0.05,Rainwise IP-100,2013-07-10 17:00:00,
2013-07-10 13:05:00,76.4,76.5,29.45,SSW,202,0.0,4.2,100,0.00,,,0.05,Rainwise IP-100,2013-07-10 17:05:00,
2013-07-10 13:10:00,76.8,76.8,29.45,SSE,157,3.0,3.5,100,0.00,,,0.05,Rainwise IP-100,2013-07-10 17:10:00,
2013-07-10 13:15:00,76.2,76.0,29.44,ENE,67,0.0,6.8,99,0.00,,,0.05,Rainwise IP-100,2013-07-10 17:15:00,
2013-07-10 13:20:00,75.6,75.0,29.44,NNW,337,0.0,2.6,99,0.00,,,0.05,Rainwise IP-100,2013-07-10 17:20:00,
2013-07-10 13:25:00,75.8,75.5,29.44,SW,225,0.0,2.3,99,0.00,,,0.05,Rainwise IP-100,2013-07-10 17:25:00,
2013-07-10 13:30:00,76.2,76.0,29.44,SSW,202,0.0,4.0,99,0.00,,,0.05,Rainwise IP-100,2013-07-10 17:30:00,
2013-07-10 13:35:00,76.4,76.3,29.43,ENE,67,1.4,4.9,99,0.00,,,0.05,Rainwise IP-100,2013-07-10 17:35:00,
2013-07-10 13:40:00,76.3,75.5,29.43,SSE,157,0.0,5.1,98,0.00,,,0.05,Rainwise IP-100,2013-07-10 17:40:00,
2013-07-10 13:45:00,76.5,76.0,29.43,West,270,0.0,2.8,98,0.00,,,0.05,Rainwise IP-100,2013-07-10 17:45:00,
2013-07-10 13:50:00,76.8,76.0,29.42,WNW,292,0.0,5.1,97,0.00,,,0.05,Rainwise IP-100,2013-07-10 17:50:00,
2013-07-10 13:55:00,76.7,75.5,29.42,SW,225,0.0,4.4,96,0.00,,,0.05,Rainwise IP-100,2013-07-10 17:55:00,
2013-07-10 14:01:00,76.7,75.5,29.42,SSW,202,1.9,1.9,96,0.00,,,0.05,Rainwise IP-100,2013-07-10 18:01:00,
2013-07-10 14:06:00,76.4,75.0,29.41,NNW,337,1.4,2.6,96,0.00,,,0.05,Rainwise IP-100,2013-07-10 18:06:00,
2013-07-10 14:11:00,76.4,74.7,29.41,SW,225,0.0,2.6,95,0.00,,,0.05,Rainwise IP-100,2013-07-10 18:11:00,
2013-07-10 14:16:00,76.6,74.3,29.41,WSW,247,0.0,3.7,94,0.00,,,0.05,Rainwise IP-100,2013-07-10 18:16:00,
2013-07-10 14:21:00,76.7,74.7,29.40,SW,225,0.0,2.1,94,0.00,,,0.05,Rainwise IP-100,2013-07-10 18:21:00,
2013-07-10 14:26:00,77.0,75.0,29.40,NE,45,0.0,2.6,94,0.00,,,0.05,Rainwise IP-100,2013-07-10 18:26:00,
2013-07-10 14:31:00,77.3,75.0,29.39,NNE,22,3.7,5.4,93,0.00,,,0.05,Rainwise IP-100,2013-07-10 18:31:00,
2013-07-10 14:36:00,77.3,74.0,29.39,NNE,22,2.3,4.7,89,0.00,,,0.05,Rainwise IP-100,2013-07-10 18:36:00,
2013-07-10 14:41:00,77.5,73.7,29.39,ENE,67,2.6,3.5,88,0.00,,,0.05,Rainwise IP-100,2013-07-10 18:41:00,
2013-07-10 14:46:00,77.2,74.0,29.39,WNW,292,0.0,3.5,89,0.00,,,0.05,Rainwise IP-100,2013-07-10 18:46:00,
2013-07-10 14:51:00,76.5,73.0,29.39,NNW,337,4.7,4.9,89,0.00,,,0.05,Rainwise IP-100,2013-07-10 18:51:00,
2013-07-10 14:56:00,76.2,72.3,29.39,NNW,337,2.8,7.0,88,0.00,,,0.05,Rainwise IP-100,2013-07-10 18:56:00,
2013-07-10 15:01:00,76.1,72.0,29.39,NNW,337,3.0,4.4,88,0.00,,,0.05,Rainwise IP-100,2013-07-10 19:01:00,
2013-07-10 15:06:00,75.9,72.3,29.39,WSW,247,2.3,4.9,89,0.00,,,0.05,Rainwise IP-100,2013-07-10 19:06:00,
2013-07-10 15:11:00,75.5,72.3,29.39,NNW,337,2.8,3.3,90,0.00,,,0.05,Rainwise IP-100,2013-07-10 19:11:00,
2013-07-10 15:17:00,75.2,72.3,29.39,NNE,22,4.0,4.7,91,0.12,,,0.07,Rainwise IP-100,2013-07-10 19:17:00,
2013-07-10 15:22:00,74.4,72.0,29.38,NNW,337,4.2,6.3,92,0.18,,,0.09,Rainwise IP-100,2013-07-10 19:22:00,
2013-07-10 15:27:00,73.7,72.0,29.38,NNW,337,4.7,6.1,94,0.24,,,0.11,Rainwise IP-100,2013-07-10 19:27:00,
2013-07-10 15:32:00,73.1,71.7,29.38,NE,45,3.3,6.8,95,0.18,,,0.12,Rainwise IP-100,2013-07-10 19:32:00,
2013-07-10 15:37:00,72.6,71.7,29.37,NNW,337,2.3,4.9,96,0.06,,,0.12,Rainwise IP-100,2013-07-10 19:37:00,
2013-07-10 15:42:00,72.4,71.7,29.37,WNW,292,4.2,9.1,97,0.06,,,0.13,Rainwise IP-100,2013-07-10 19:42:00,
2013-07-10 15:47:00,72.4,71.7,29.37,NW,315,2.3,4.9,98,0.06,,,0.13,Rainwise IP-100,2013-07-10 19:47:00,
2013-07-10 15:52:00,72.5,72.0,29.38,SSW,202,4.9,6.8,98,0.00,,,0.13,Rainwise IP-100,2013-07-10 19:52:00,
2013-07-10 15:57:00,72.5,72.0,29.40,SW,225,3.7,11.2,98,0.36,,,0.19,Rainwise IP-100,2013-07-10 19:57:00,
2013-07-10 16:02:00,72.5,72.0,29.39,WNW,292,1.6,9.3,98,1.32,,,0.38,Rainwise IP-100,2013-07-10 20:02:00,
2013-07-10 16:07:00,72.4,72.0,29.40,SE,135,2.6,4.0,99,2.34,,,0.61,Rainwise IP-100,2013-07-10 20:07:00,
2013-07-10 16:12:00,72.4,72.0,29.39,SW,225,2.8,4.4,99,2.28,,,0.73,Rainwise IP-100,2013-07-10 20:12:00,
2013-07-10 16:17:00,72.3,72.0,29.39,SW,225,1.4,5.1,99,0.96,,,0.74,Rainwise IP-100,2013-07-10 20:17:00,
2013-07-10 16:22:00,72.4,72.3,29.39,NNE,22,0.0,2.8,100,0.06,,,0.74,Rainwise IP-100,2013-07-10 20:22:00,
2013-07-10 16:27:00,72.5,72.7,29.38,WNW,292,0.0,2.1,100,0.06,,,0.75,Rainwise IP-100,2013-07-10 20:27:00,
2013-07-10 16:33:00,72.5,72.7,29.38,NNW,337,2.6,4.9,100,0.12,,,0.76,Rainwise IP-100,2013-07-10 20:33:00,
2013-07-10 16:38:00,72.6,72.7,29.38,WNW,292,0.0,3.5,100,0.12,,,0.77,Rainwise IP-100,2013-07-10 20:38:00,
2013-07-10 16:43:00,72.5,72.7,29.38,NNW,337,1.9,3.3,100,0.06,,,0.77,Rainwise IP-100,2013-07-10 20:43:00,
2013-07-10 16:48:00,72.5,72.7,29.38,NNW,337,0.0,2.6,100,0.00,,,0.77,Rainwise IP-100,2013-07-10 20:48:00,
2013-07-10 16:53:00,72.6,72.7,29.37,NE,45,2.3,3.0,100,0.00,,,0.77,Rainwise IP-100,2013-07-10 20:53:00,
2013-07-10 16:58:00,72.7,72.7,29.37,NNW,337,4.4,5.4,100,0.00,,,0.77,Rainwise IP-100,2013-07-10 20:58:00,
2013-07-10 17:03:00,72.8,72.7,29.38,WNW,292,0.0,5.4,100,0.00,,,0.77,Rainwise IP-100,2013-07-10 21:03:00,
2013-07-10 17:08:00,72.9,73.0,29.38,ENE,67,0.0,1.4,100,0.00,,,0.77,Rainwise IP-100,2013-07-10 21:08:00,
2013-07-10 17:13:00,73.2,73.3,29.37,NNE,22,0.0,2.3,100,0.00,,,0.77,Rainwise IP-100,2013-07-10 21:13:00,
2013-07-10 17:18:00,73.3,73.3,29.37,ENE,67,3.3,3.3,100,0.00,,,0.77,Rainwise IP-100,2013-07-10 21:18:00,
2013-07-10 17:23:00,73.2,73.3,29.38,NNE,22,3.5,4.9,100,0.00,,,0.77,Rainwise IP-100,2013-07-10 21:23:00,
2013-07-10 17:28:00,73.1,73.0,29.37,NE,45,3.7,4.7,100,0.00,,,0.77,Rainwise IP-100,2013-07-10 21:28:00,
2013-07-10 17:33:00,72.9,73.0,29.37,NNW,337,1.2,4.9,100,0.00,,,0.77,Rainwise IP-100,2013-07-10 21:33:00,
2013-07-10 17:38:00,72.7,72.7,29.37,NW,315,0.0,4.0,100,0.00,,,0.77,Rainwise IP-100,2013-07-10 21:38:00,
2013-07-10 17:43:00,72.6,72.7,29.37,North,360,1.9,2.1,100,0.00,,,0.77,Rainwise IP-100,2013-07-10 21:43:00,
2013-07-10 17:49:00,72.7,72.7,29.37,NNE,22,0.0,3.0,100,0.00,,,0.77,Rainwise IP-100,2013-07-10 21:49:00,
2013-07-10 17:54:00,72.7,72.7,29.36,North,360,4.4,5.1,100,0.00,,,0.77,Rainwise IP-100,2013-07-10 21:54:00,
2013-07-10 17:59:00,72.6,72.7,29.36,NNW,337,3.5,5.1,100,0.00,,,0.77,Rainwise IP-100,2013-07-10 21:59:00,
2013-07-10 18:04:00,72.6,72.7,29.36,WSW,247,1.2,3.7,100,0.00,,,0.77,Rainwise IP-100,2013-07-10 22:04:00,
2013-07-10 18:09:00,72.7,72.7,29.36,WSW,247,2.3,2.3,100,0.00,,,0.77,Rainwise IP-100,2013-07-10 22:09:00,
2013-07-10 18:14:00,72.7,72.7,29.36,WSW,247,3.5,4.0,100,0.00,,,0.77,Rainwise IP-100,2013-07-10 22:14:00,
2013-07-10 18:19:00,72.9,73.0,29.36,SSE,157,1.2,6.1,100,0.00,,,0.77,Rainwise IP-100,2013-07-10 22:19:00,
2013-07-10 18:24:00,73.1,73.0,29.36,SSE,157,0.0,2.1,100,0.00,,,0.77,Rainwise IP-100,2013-07-10 22:24:00,
2013-07-10 18:29:00,73.3,73.3,29.36,SSE,157,0.0,0.0,100,0.00,,,0.77,Rainwise IP-100,2013-07-10 22:29:00,
2013-07-10 18:34:00,73.3,73.3,29.37,SSE,157,0.0,0.0,100,0.00,,,0.77,Rainwise IP-100,2013-07-10 22:34:00,
2013-07-10 18:39:00,73.3,73.3,29.37,SSE,157,0.0,0.0,100,0.00,,,0.77,Rainwise IP-100,2013-07-10 22:39:00,
2013-07-10 18:44:00,73.4,73.3,29.36,SSE,157,0.0,0.0,100,0.00,,,0.77,Rainwise IP-100,2013-07-10 22:44:00,
2013-07-10 18:49:00,73.4,73.3,29.37,SSE,157,0.0,0.0,100,0.00,,,0.77,Rainwise IP-100,2013-07-10 22:49:00,
2013-07-10 18:54:00,73.5,73.7,29.36,SSE,157,0.0,0.0,100,0.00,,,0.77,Rainwise IP-100,2013-07-10 22:54:00,
2013-07-10 18:59:00,73.6,73.7,29.36,SSE,157,0.0,1.2,100,0.00,,,0.77,Rainwise IP-100,2013-07-10 22:59:00,
2013-07-10 19:05:00,73.6,73.7,29.36,SSW,202,2.3,3.0,100,0.00,,,0.77,Rainwise IP-100,2013-07-10 23:05:00,
2013-07-10 19:10:00,73.6,73.7,29.37,WSW,247,1.2,3.3,100,0.00,,,0.77,Rainwise IP-100,2013-07-10 23:10:00,
2013-07-10 19:15:00,73.6,73.7,29.37,SSW,202,0.0,2.1,100,0.00,,,0.77,Rainwise IP-100,2013-07-10 23:15:00,
2013-07-10 19:20:00,73.7,73.7,29.37,NNE,22,2.1,2.1,100,0.00,,,0.77,Rainwise IP-100,2013-07-10 23:20:00,
2013-07-10 19:25:00,73.7,73.7,29.37,NNE,22,1.6,2.1,100,0.00,,,0.77,Rainwise IP-100,2013-07-10 23:25:00,
2013-07-10 19:30:00,73.6,73.7,29.37,WSW,247,1.9,1.9,100,0.00,,,0.77,Rainwise IP-100,2013-07-10 23:30:00,
2013-07-10 19:35:00,73.6,73.7,29.37,SW,225,1.9,2.8,100,0.00,,,0.77,Rainwise IP-100,2013-07-10 23:35:00,
2013-07-10 19:40:00,73.6,73.7,29.37,SSW,202,1.4,3.5,100,0.00,,,0.77,Rainwise IP-100,2013-07-10 23:40:00,
2013-07-10 19:45:00,73.6,73.7,29.36,SSW,202,1.6,1.6,100,0.00,,,0.77,Rainwise IP-100,2013-07-10 23:45:00,
2013-07-10 19:50:00,73.7,73.7,29.37,SSE,157,0.0,2.3,100,0.00,,,0.77,Rainwise IP-100,2013-07-10 23:50:00,
2013-07-10 19:55:00,73.7,73.7,29.36,SSW,202,0.0,1.6,100,0.00,,,0.77,Rainwise IP-100,2013-07-10 23:55:00,
2013-07-10 20:00:00,73.7,73.7,29.36,SE,135,1.2,2.6,100,0.00,,,0.77,Rainwise IP-100,2013-07-11 00:00:00,
2013-07-10 20:05:00,73.7,73.7,29.36,SE,135,0.0,2.3,100,0.00,,,0.77,Rainwise IP-100,2013-07-11 00:05:00,
2013-07-10 20:10:00,73.6,73.7,29.36,SW,225,1.2,2.1,100,0.00,,,0.77,Rainwise IP-100,2013-07-11 00:10:00,
2013-07-10 20:15:00,73.5,73.7,29.36,SSW,202,1.9,2.8,100,0.00,,,0.77,Rainwise IP-100,2013-07-11 00:15:00,
2013-07-10 20:21:00,73.4,73.3,29.35,WSW,247,1.9,2.6,100,0.00,,,0.77,Rainwise IP-100,2013-07-11 00:21:00,
2013-07-10 20:26:00,73.4,73.3,29.35,SSW,202,2.6,3.3,100,0.00,,,0.77,Rainwise IP-100,2013-07-11 00:26:00,
2013-07-10 20:31:00,73.3,73.3,29.36,SSW,202,1.2,2.6,100,0.00,,,0.77,Rainwise IP-100,2013-07-11 00:31:00,
2013-07-10 20:36:00,73.2,73.3,29.36,South,180,0.0,2.3,100,0.00,,,0.77,Rainwise IP-100,2013-07-11 00:36:00,
2013-07-10 20:41:00,73.1,73.0,29.36,WSW,247,2.8,3.3,100,0.00,,,0.77,Rainwise IP-100,2013-07-11 00:41:00,
2013-07-10 20:46:00,73.0,73.0,29.37,SSW,202,5.4,5.4,100,0.00,,,0.77,Rainwise IP-100,2013-07-11 00:46:00,
2013-07-10 20:51:00,73.0,73.0,29.36,WSW,247,3.5,5.6,100,0.00,,,0.77,Rainwise IP-100,2013-07-11 00:51:00,
2013-07-10 20:56:00,73.0,73.0,29.37,SW,225,1.4,6.1,100,0.00,,,0.77,Rainwise IP-100,2013-07-11 00:56:00,
2013-07-10 21:01:00,72.9,73.0,29.37,SW,225,0.0,3.3,100,0.00,,,0.77,Rainwise IP-100,2013-07-11 01:01:00,
2013-07-10 21:06:00,72.7,72.7,29.37,SW,225,0.0,0.0,100,0.00,,,0.77,Rainwise IP-100,2013-07-11 01:06:00,
2013-07-10 21:11:00,72.6,72.7,29.37,SW,225,1.2,1.4,100,0.00,,,0.77,Rainwise IP-100,2013-07-11 01:11:00,
2013-07-10 21:16:00,72.4,72.3,29.37,SSW,202,2.1,2.6,100,0.00,,,0.77,Rainwise IP-100,2013-07-11 01:16:00,
2013-07-10 21:21:00,72.3,72.3,29.37,SSW,202,2.3,2.8,100,0.00,,,0.77,Rainwise IP-100,2013-07-11 01:21:00,
2013-07-10 21:26:00,72.1,72.0,29.37,SSW,202,1.9,2.3,100,0.00,,,0.77,Rainwise IP-100,2013-07-11 01:26:00,
2013-07-10 21:31:00,72.0,72.0,29.37,SSW,202,1.9,2.3,100,0.00,,,0.77,Rainwise IP-100,2013-07-11 01:31:00,
2013-07-10 21:37:00,71.9,72.0,29.37,SSW,202,0.0,1.9,100,0.00,,,0.77,Rainwise IP-100,2013-07-11 01:37:00,
2013-07-10 21:42:00,71.7,71.7,29.38,SSW,202,1.2,1.4,100,0.00,,,0.77,Rainwise IP-100,2013-07-11 01:42:00,
2013-07-10 21:47:00,71.6,71.7,29.38,SSW,202,0.0,1.6,100,0.00,,,0.77,Rainwise IP-100,2013-07-11 01:47:00,
2013-07-10 21:52:00,71.5,71.7,29.38,SSW,202,0.0,0.0,100,0.00,,,0.77,Rainwise IP-100,2013-07-11 01:52:00,
2013-07-10 21:57:00,71.4,71.3,29.38,SSW,202,0.0,1.4,100,0.00,,,0.77,Rainwise IP-100,2013-07-11 01:57:00,
2013-07-10 22:02:00,71.3,71.3,29.38,SSW,202,0.0,1.2,100,0.00,,,0.77,Rainwise IP-100,2013-07-11 02:02:00,
2013-07-10 22:07:00,71.2,71.3,29.38,SSW,202,0.0,1.9,100,0.00,,,0.77,Rainwise IP-100,2013-07-11 02:07:00,
2013-07-10 22:12:00,71.2,71.3,29.38,SSW,202,1.2,1.6,100,0.00,,,0.77,Rainwise IP-100,2013-07-11 02:12:00,
2013-07-10 22:17:00,71.2,71.3,29.38,SSW,202,1.6,2.3,100,0.00,,,0.77,Rainwise IP-100,2013-07-11 02:17:00,
2013-07-10 22:22:00,71.2,71.3,29.39,SSW,202,0.0,2.1,100,0.00,,,0.77,Rainwise IP-100,2013-07-11 02:22:00,
2013-07-10 22:27:00,71.2,71.3,29.38,SSW,202,1.4,2.1,100,0.00,,,0.77,Rainwise IP-100,2013-07-11 02:27:00,
2013-07-10 22:32:00,71.2,71.3,29.38,SSW,202,0.0,1.6,100,0.00,,,0.77,Rainwise IP-100,2013-07-11 02:32:00,
2013-07-10 22:37:00,71.2,71.3,29.38,SSE,157,0.0,2.8,100,0.00,,,0.77,Rainwise IP-100,2013-07-11 02:37:00,
2013-07-10 22:42:00,71.3,71.3,29.38,SSE,157,0.0,0.0,100,0.00,,,0.77,Rainwise IP-100,2013-07-11 02:42:00,
2013-07-10 22:47:00,71.2,71.3,29.37,SSE,157,0.0,0.0,100,0.00,,,0.77,Rainwise IP-100,2013-07-11 02:47:00,
2013-07-10 22:53:00,71.2,71.3,29.37,SSE,157,0.0,0.0,100,0.00,,,0.77,Rainwise IP-100,2013-07-11 02:53:00,
2013-07-10 22:58:00,71.3,71.3,29.38,SSE,157,0.0,1.2,100,0.00,,,0.77,Rainwise IP-100,2013-07-11 02:58:00,
2013-07-10 23:03:00,71.4,71.3,29.37,SSE,157,0.0,0.0,100,0.00,,,0.77,Rainwise IP-100,2013-07-11 03:03:00,
2013-07-10 23:08:00,71.5,71.7,29.39,SSE,157,0.0,1.4,100,0.00,,,0.77,Rainwise IP-100,2013-07-11 03:08:00,
2013-07-10 23:13:00,71.5,71.7,29.38,SSE,157,0.0,0.0,100,0.00,,,0.77,Rainwise IP-100,2013-07-11 03:13:00,
2013-07-10 23:18:00,71.5,71.7,29.38,SSE,157,0.0,0.0,100,0.00,,,0.77,Rainwise IP-100,2013-07-11 03:18:00,
2013-07-10 23:23:00,71.4,71.3,29.37,SSE,157,0.0,0.0,100,0.00,,,0.77,Rainwise IP-100,2013-07-11 03:23:00,
2013-07-10 23:28:00,71.4,71.3,29.37,ENE,67,1.4,0.0,100,0.00,,,0.77,Rainwise IP-100,2013-07-11 03:28:00,
2013-07-10 23:33:00,71.3,71.3,29.37,ENE,67,0.0,1.4,100,0.00,,,0.77,Rainwise IP-100,2013-07-11 03:33:00,
2013-07-10 23:38:00,71.2,71.3,29.37,NNE,22,1.9,2.6,100,0.00,,,0.77,Rainwise IP-100,2013-07-11 03:38:00,
2013-07-10 23:43:00,71.3,71.3,29.36,NNE,22,0.0,2.6,100,0.00,,,0.77,Rainwise IP-100,2013-07-11 03:43:00,
2013-07-10 23:48:00,71.5,71.7,29.36,SSE,157,0.0,2.6,100,0.00,,,0.77,Rainwise IP-100,2013-07-11 03:48:00,
2013-07-10 23:53:00,71.6,71.7,29.36,SW,225,1.9,1.9,100,0.00,,,0.77,Rainwise IP-100,2013-07-11 03:53:00,
2013-07-10 23:58:00,71.6,71.7,29.35,SSW,202,2.1,2.6,100,0.00,,,0.77,Rainwise IP-100,2013-07-11 03:58:00,